UAL5820 MMPR-KPDX

Flight info

Callsign UAL5820
Flight time 4h 18m
Altitude 36000
Route BOBD 1B BOBDI UT4 LMM UJ3 HMO J92 TUS PXR BERYL
Aircraft B739/M-VGDW/C

Departure

Time 2026-04-25 18:59
Airport Puerto Vallarta International Airport (MMPR)

Arrival

Time 2026-04-25 23:17
Airport Portland International Airport (KPDX)
Time Latitude Longitude Altitude Speed Heading
2026-04-25 18:42 20.67990 -105.24590 28 ft 0 kts 227°
2026-04-25 18:47 20.67994 -105.24584 28 ft 3 kts 250°
2026-04-25 18:47 20.67993 -105.24565 28 ft 3 kts 316°
2026-04-25 18:47 20.67987 -105.24560 28 ft 0 kts 345°
2026-04-25 18:52 20.67988 -105.24560 28 ft 1 kts 346°
2026-04-25 18:52 20.68019 -105.24566 28 ft 7 kts 351°
2026-04-25 18:52 20.68067 -105.24581 28 ft 8 kts 333°
2026-04-25 18:52 20.68114 -105.24618 28 ft 9 kts 317°
2026-04-25 18:53 20.68164 -105.24666 28 ft 10 kts 317°
2026-04-25 18:53 20.68222 -105.24699 28 ft 8 kts
2026-04-25 18:53 20.68293 -105.24680 28 ft 13 kts 16°
2026-04-25 18:53 20.68380 -105.24654 28 ft 13 kts 16°
2026-04-25 18:54 20.68532 -105.24555 28 ft 15 kts 47°
2026-04-25 18:54 20.68605 -105.24471 28 ft 15 kts 47°
2026-04-25 18:54 20.68675 -105.24392 28 ft 14 kts 47°
2026-04-25 18:55 20.68742 -105.24315 28 ft 14 kts 47°
2026-04-25 18:55 20.68808 -105.24260 28 ft 12 kts 11°
2026-04-25 18:55 20.68864 -105.24282 28 ft 5 kts 319°
2026-04-25 18:55 20.68866 -105.24284 28 ft 0 kts 319°
2026-04-25 18:56 20.68889 -105.24305 27 ft 7 kts 319°
2026-04-25 18:57 20.68927 -105.24349 28 ft 5 kts 285°
2026-04-25 18:57 20.68922 -105.24367 28 ft 4 kts 242°
2026-04-25 18:57 20.68910 -105.24383 28 ft 0 kts 226°
2026-04-25 18:58 20.68905 -105.24389 28 ft 0 kts 226°
2026-04-25 18:58 20.68833 -105.24471 29 ft 48 kts 227°
2026-04-25 18:58 20.68422 -105.24943 26 ft 123 kts 227°
2026-04-25 18:59 20.66847 -105.26709 853 ft 176 kts 225°
2026-04-25 18:59 20.65036 -105.28711 2034 ft 200 kts 226°
2026-04-25 19:00 20.64241 -105.31416 3045 ft 212 kts 296°
2026-04-25 19:00 20.65210 -105.32604 3569 ft 216 kts 325°
2026-04-25 19:01 20.68059 -105.33708 4679 ft 221 kts 343°
2026-04-25 19:01 20.69550 -105.34139 5232 ft 223 kts 344°
2026-04-25 19:01 20.71052 -105.34575 5799 ft 224 kts 344°
2026-04-25 19:01 20.72556 -105.35017 6358 ft 225 kts 344°
2026-04-25 19:02 20.75590 -105.35918 7393 ft 230 kts 344°
2026-04-25 19:02 20.77132 -105.36382 7931 ft 231 kts 344°
2026-04-25 19:02 20.78681 -105.36851 8449 ft 232 kts 343°
2026-04-25 19:03 20.81300 -105.37643 9234 ft 237 kts 344°
2026-04-25 19:03 20.83433 -105.38289 9906 ft 238 kts 344°
2026-04-25 19:03 20.85032 -105.38776 10387 ft 240 kts 344°
2026-04-25 19:04 20.88338 -105.39584 11144 ft 255 kts 357°
2026-04-25 19:04 20.90151 -105.39658 11292 ft 273 kts 358°
2026-04-25 19:05 20.94247 -105.39839 11601 ft 315 kts 357°
2026-04-25 19:05 20.98884 -105.40100 11914 ft 352 kts 356°
2026-04-25 19:05 21.01388 -105.40252 12035 ft 368 kts 355°
2026-04-25 19:06 21.03908 -105.40910 12190 ft 381 kts 333°
2026-04-25 19:06 21.08038 -105.44507 13177 ft 386 kts 316°
2026-04-25 19:06 21.09954 -105.46472 13701 ft 387 kts 316°
2026-04-25 19:07 21.13872 -105.50487 14639 ft 392 kts 316°
2026-04-25 19:07 21.15857 -105.52500 15101 ft 394 kts 316°
2026-04-25 19:08 21.19877 -105.56553 16026 ft 398 kts 316°
2026-04-25 19:08 21.21908 -105.58595 16443 ft 401 kts 316°
2026-04-25 19:09 21.28052 -105.64777 17716 ft 407 kts 316°
2026-04-25 19:09 21.29421 -105.66154 18010 ft 407 kts 316°
2026-04-25 19:09 21.34264 -105.71032 18905 ft 412 kts 316°
2026-04-25 19:10 21.36362 -105.73146 19253 ft 415 kts 316°
2026-04-25 19:10 21.38498 -105.75253 19587 ft 417 kts 319°
2026-04-25 19:10 21.40783 -105.77131 19966 ft 419 kts 323°
2026-04-25 19:10 21.43197 -105.78909 20317 ft 421 kts 325°
2026-04-25 19:11 21.45645 -105.80649 20662 ft 423 kts 325°
2026-04-25 19:11 21.48110 -105.82401 20972 ft 425 kts 325°
2026-04-25 19:11 21.50575 -105.84174 21274 ft 427 kts 324°
2026-04-25 19:11 21.53038 -105.85970 21570 ft 429 kts 324°
2026-04-25 19:12 21.55509 -105.87790 21866 ft 431 kts 324°
2026-04-25 19:12 21.57981 -105.89623 22167 ft 433 kts 323°
2026-04-25 19:12 21.60443 -105.91457 22447 ft 435 kts 323°
2026-04-25 19:12 21.62933 -105.93313 22735 ft 436 kts 323°
2026-04-25 19:13 21.65432 -105.95178 22980 ft 438 kts 323°
2026-04-25 19:13 21.67938 -105.97050 23234 ft 440 kts 323°
2026-04-25 19:13 21.70457 -105.98930 23504 ft 441 kts 323°
2026-04-25 19:13 21.72985 -106.00817 23766 ft 442 kts 323°
2026-04-25 19:14 21.75519 -106.02711 23964 ft 445 kts 323°
2026-04-25 19:14 21.77203 -106.03970 24109 ft 446 kts 323°
2026-04-25 19:14 21.80625 -106.06528 24451 ft 447 kts 323°
2026-04-25 19:14 21.83183 -106.08440 24723 ft 448 kts 323°
2026-04-25 19:15 21.85712 -106.10333 24960 ft 449 kts 323°
2026-04-25 19:15 21.88283 -106.12258 25181 ft 450 kts 323°
2026-04-25 19:15 21.90865 -106.14193 25402 ft 451 kts 323°
2026-04-25 19:15 21.93445 -106.16127 25621 ft 452 kts 323°
2026-04-25 19:16 21.96030 -106.18065 25825 ft 453 kts 323°
2026-04-25 19:16 21.98621 -106.20008 26033 ft 454 kts 323°
2026-04-25 19:16 22.01214 -106.21954 26240 ft 455 kts 322°
2026-04-25 19:16 22.03787 -106.23886 26434 ft 456 kts 322°
2026-04-25 19:17 22.06391 -106.25841 26623 ft 457 kts 322°
2026-04-25 19:17 22.09000 -106.27801 26819 ft 457 kts 322°
2026-04-25 19:17 22.11613 -106.29766 27005 ft 458 kts 322°
2026-04-25 19:17 22.14232 -106.31736 27184 ft 459 kts 322°
2026-04-25 19:18 22.16857 -106.33712 27367 ft 460 kts 322°
2026-04-25 19:18 22.19488 -106.35692 27566 ft 460 kts 322°
2026-04-25 19:18 22.22115 -106.37668 27746 ft 460 kts 322°
2026-04-25 19:18 22.24749 -106.39653 27897 ft 462 kts 322°
2026-04-25 19:19 22.27388 -106.41642 28061 ft 463 kts 322°
2026-04-25 19:19 22.30034 -106.43637 28275 ft 462 kts 322°
2026-04-25 19:19 22.32631 -106.45597 28568 ft 460 kts 322°
2026-04-25 19:19 22.34409 -106.46938 28779 ft 459 kts 322°
2026-04-25 19:20 22.37866 -106.49547 29186 ft 456 kts 322°
2026-04-25 19:20 22.40466 -106.51510 29515 ft 454 kts 322°
2026-04-25 19:20 22.43061 -106.53471 29815 ft 452 kts 321°
2026-04-25 19:20 22.45606 -106.55396 30091 ft 452 kts 321°
2026-04-25 19:21 22.48188 -106.57349 30409 ft 451 kts 321°
2026-04-25 19:21 22.53301 -106.61220 31107 ft 446 kts 321°
2026-04-25 19:21 22.55844 -106.63146 31458 ft 444 kts 321°
2026-04-25 19:22 22.58370 -106.65062 31755 ft 443 kts 321°
2026-04-25 19:22 22.60892 -106.66976 32052 ft 442 kts 321°
2026-04-25 19:22 22.65901 -106.70777 32732 ft 438 kts 321°
2026-04-25 19:23 22.68389 -106.72667 33064 ft 436 kts 321°
2026-04-25 19:23 22.73340 -106.76429 33629 ft 434 kts 321°
2026-04-25 19:23 22.75779 -106.78284 33909 ft 432 kts 321°
2026-04-25 19:24 22.78242 -106.80157 34213 ft 430 kts 320°
2026-04-25 19:24 22.80686 -106.82017 34477 ft 429 kts 320°
2026-04-25 19:24 22.85567 -106.85734 34926 ft 428 kts 320°
2026-04-25 19:25 22.90441 -106.89450 35362 ft 427 kts 320°
2026-04-25 19:25 22.92867 -106.91300 35576 ft 426 kts 320°
2026-04-25 19:25 22.95294 -106.93153 35797 ft 425 kts 320°
2026-04-25 19:26 22.97704 -106.94992 35957 ft 422 kts 320°
2026-04-25 19:26 23.00100 -106.96823 35950 ft 422 kts 320°
2026-04-25 19:26 23.04892 -107.00488 35968 ft 425 kts 320°
2026-04-25 19:27 23.08955 -107.03597 35987 ft 428 kts 320°
2026-04-25 19:27 23.14639 -107.07948 35975 ft 430 kts 320°
2026-04-25 19:28 23.19523 -107.11693 35969 ft 429 kts 320°
2026-04-25 19:28 23.24369 -107.15407 35968 ft 427 kts 320°
2026-04-25 19:29 23.29218 -107.19128 35973 ft 425 kts 320°
2026-04-25 19:29 23.34049 -107.22839 35969 ft 423 kts 320°
2026-04-25 19:30 23.38845 -107.26529 35973 ft 421 kts 319°
2026-04-25 19:30 23.43619 -107.30207 35971 ft 420 kts 319°
2026-04-25 19:31 23.48374 -107.33872 35970 ft 419 kts 319°
2026-04-25 19:31 23.53126 -107.37539 35968 ft 418 kts 319°
2026-04-25 19:32 23.57872 -107.41203 35979 ft 419 kts 319°
2026-04-25 19:32 23.61026 -107.43641 35969 ft 420 kts 319°
2026-04-25 19:33 23.67386 -107.48558 35965 ft 422 kts 319°
2026-04-25 19:33 23.72184 -107.52273 35966 ft 423 kts 319°
2026-04-25 19:34 23.76999 -107.56006 35965 ft 425 kts 319°
2026-04-25 19:34 23.81828 -107.59751 35963 ft 426 kts 319°
2026-04-25 19:35 23.86658 -107.63500 35954 ft 426 kts 319°
2026-04-25 19:35 23.91481 -107.67247 35953 ft 425 kts 319°
2026-04-25 19:36 23.96298 -107.70993 35953 ft 424 kts 319°
2026-04-25 19:36 24.01066 -107.74705 35954 ft 423 kts 319°
2026-04-25 19:37 24.05853 -107.78436 35951 ft 422 kts 319°
2026-04-25 19:37 24.10627 -107.82158 35954 ft 421 kts 319°
2026-04-25 19:38 24.15391 -107.85879 35953 ft 420 kts 319°
2026-04-25 19:38 24.20147 -107.89597 35954 ft 420 kts 319°
2026-04-25 19:39 24.24876 -107.93295 35955 ft 420 kts 319°
2026-04-25 19:39 24.29635 -107.97021 35954 ft 420 kts 319°
2026-04-25 19:40 24.34402 -108.00755 35955 ft 421 kts 319°
2026-04-25 19:40 24.39172 -108.04496 35957 ft 422 kts 319°
2026-04-25 19:41 24.43946 -108.08246 35955 ft 422 kts 319°
2026-04-25 19:41 24.47121 -108.10741 35955 ft 423 kts 319°
2026-04-25 19:42 24.53498 -108.15756 35952 ft 423 kts 319°
2026-04-25 19:42 24.58284 -108.19524 35955 ft 423 kts 318°
2026-04-25 19:43 24.62268 -108.22663 35954 ft 423 kts 319°
2026-04-25 19:43 24.67062 -108.26445 35954 ft 423 kts 318°
2026-04-25 19:44 24.71850 -108.30225 35952 ft 423 kts 318°
2026-04-25 19:44 24.76625 -108.33999 35954 ft 422 kts 318°
2026-04-25 19:45 24.81364 -108.37748 35955 ft 422 kts 318°
2026-04-25 19:45 24.86134 -108.41525 35966 ft 422 kts 318°
2026-04-25 19:46 24.90898 -108.45301 35973 ft 421 kts 318°
2026-04-25 19:46 24.95655 -108.49073 35969 ft 420 kts 318°
2026-04-25 19:47 25.00404 -108.52846 35972 ft 420 kts 318°
2026-04-25 19:47 25.05145 -108.56615 35973 ft 420 kts 318°
2026-04-25 19:48 25.09888 -108.60390 35973 ft 420 kts 318°
2026-04-25 19:48 25.14601 -108.64144 35975 ft 421 kts 318°
2026-04-25 19:49 25.18583 -108.67318 35972 ft 421 kts 318°
2026-04-25 19:49 25.24108 -108.71730 35976 ft 421 kts 318°
2026-04-25 19:50 25.31220 -108.77411 35974 ft 422 kts 318°
2026-04-25 19:51 25.35977 -108.81218 35970 ft 422 kts 317°
2026-04-25 19:51 25.40735 -108.85032 35978 ft 422 kts 317°
2026-04-25 19:52 25.45498 -108.88853 35966 ft 422 kts 317°
2026-04-25 19:52 25.50250 -108.92682 35927 ft 421 kts 316°
2026-04-25 19:53 25.54969 -108.96516 35968 ft 421 kts 318°
2026-04-25 19:53 25.59703 -109.00275 35965 ft 421 kts 317°
2026-04-25 19:54 25.64448 -109.04091 35964 ft 421 kts 317°
2026-04-25 19:54 25.69355 -109.07692 35956 ft 429 kts 327°
2026-04-25 19:55 25.74956 -109.10207 35960 ft 435 kts 331°
2026-04-25 19:55 25.80608 -109.12641 35960 ft 434 kts 331°
2026-04-25 19:56 25.86228 -109.15097 35963 ft 434 kts 330°
2026-04-25 19:56 25.91807 -109.17558 35966 ft 434 kts 330°
2026-04-25 19:57 25.97427 -109.20044 35966 ft 434 kts 330°
2026-04-25 19:57 26.03049 -109.22533 35974 ft 434 kts 330°
2026-04-25 19:58 26.08665 -109.25022 35968 ft 435 kts 330°
2026-04-25 19:58 26.14254 -109.27500 35973 ft 435 kts 330°
2026-04-25 19:59 26.19885 -109.30001 35971 ft 435 kts 330°
2026-04-25 19:59 26.25523 -109.32502 35980 ft 436 kts 330°
2026-04-25 20:00 26.31129 -109.34992 35985 ft 436 kts 330°
2026-04-25 20:00 26.36760 -109.37496 35980 ft 436 kts 330°
2026-04-25 20:01 26.45215 -109.41265 35981 ft 435 kts 330°
2026-04-25 20:01 26.50841 -109.43775 35983 ft 435 kts 330°
2026-04-25 20:02 26.56464 -109.46285 35987 ft 435 kts 330°
2026-04-25 20:02 26.62062 -109.48787 35980 ft 435 kts 330°
2026-04-25 20:03 26.67705 -109.51312 35986 ft 435 kts 330°
2026-04-25 20:03 26.73327 -109.53832 35981 ft 435 kts 330°
2026-04-25 20:04 26.78951 -109.56355 35983 ft 435 kts 330°
2026-04-25 20:04 26.84571 -109.58877 35978 ft 435 kts 330°
2026-04-25 20:05 26.90160 -109.61390 35974 ft 435 kts 330°
2026-04-25 20:05 26.95780 -109.63919 35971 ft 434 kts 330°
2026-04-25 20:06 27.01395 -109.66448 35970 ft 434 kts 330°
2026-04-25 20:06 27.06973 -109.68963 35964 ft 434 kts 330°
2026-04-25 20:07 27.12578 -109.71495 35963 ft 434 kts 330°
2026-04-25 20:07 27.18179 -109.74028 35961 ft 434 kts 330°
2026-04-25 20:08 27.23781 -109.76565 35957 ft 434 kts 330°
2026-04-25 20:08 27.29380 -109.79107 35954 ft 433 kts 330°
2026-04-25 20:09 27.34976 -109.81643 35954 ft 434 kts 330°
2026-04-25 20:09 27.40512 -109.84315 35943 ft 426 kts 322°
2026-04-25 20:10 27.45489 -109.87803 35954 ft 423 kts 320°
2026-04-25 20:10 27.50468 -109.91376 35952 ft 424 kts 320°
2026-04-25 20:11 27.55428 -109.94898 35954 ft 424 kts 320°
2026-04-25 20:11 27.60440 -109.98432 35955 ft 425 kts 320°
2026-04-25 20:12 27.65457 -110.01969 35956 ft 425 kts 320°
2026-04-25 20:12 27.68813 -110.04339 35962 ft 425 kts 320°
2026-04-25 20:13 27.75505 -110.09070 35964 ft 426 kts 320°
2026-04-25 20:13 27.80506 -110.12611 35954 ft 426 kts 320°
2026-04-25 20:14 27.85532 -110.16171 35953 ft 426 kts 320°
2026-04-25 20:14 27.90566 -110.19741 35955 ft 426 kts 320°
2026-04-25 20:15 27.95590 -110.23308 35944 ft 426 kts 320°
2026-04-25 20:15 28.00582 -110.26849 35961 ft 425 kts 320°
2026-04-25 20:16 28.05595 -110.30406 35930 ft 425 kts 320°
2026-04-25 20:16 28.10569 -110.33951 35928 ft 421 kts 320°
2026-04-25 20:17 28.15530 -110.37481 35949 ft 421 kts 320°
2026-04-25 20:17 28.20508 -110.41023 35944 ft 423 kts 320°
2026-04-25 20:18 28.25475 -110.44571 35942 ft 424 kts 320°
2026-04-25 20:18 28.30494 -110.48124 35946 ft 424 kts 320°
2026-04-25 20:19 28.35480 -110.51717 35947 ft 425 kts 319°
2026-04-25 20:19 28.40481 -110.55315 35943 ft 425 kts 320°
2026-04-25 20:20 28.45489 -110.58909 35943 ft 425 kts 319°
2026-04-25 20:20 28.50493 -110.62501 35943 ft 425 kts 319°
2026-04-25 20:21 28.55463 -110.66070 35943 ft 425 kts 319°
2026-04-25 20:21 28.60459 -110.69671 35940 ft 424 kts 319°
2026-04-25 20:22 28.63790 -110.72069 35949 ft 424 kts 319°
2026-04-25 20:22 28.70427 -110.76850 35942 ft 424 kts 319°
2026-04-25 20:23 28.75413 -110.80442 35946 ft 424 kts 319°
2026-04-25 20:23 28.80358 -110.84010 35937 ft 423 kts 319°
2026-04-25 20:24 28.85340 -110.87608 35935 ft 423 kts 319°
2026-04-25 20:24 28.90320 -110.91212 35935 ft 422 kts 319°
2026-04-25 20:25 28.95260 -110.94789 35939 ft 422 kts 319°
2026-04-25 20:25 29.00225 -110.98390 35930 ft 423 kts 319°
2026-04-25 20:26 29.05192 -111.01995 35936 ft 423 kts 319°
2026-04-25 20:26 29.07840 -111.03560 35924 ft 436 kts 330°
2026-04-25 20:26 29.10796 -111.04581 35941 ft 447 kts 338°
2026-04-25 20:27 29.13879 -111.05098 35927 ft 461 kts 348°
2026-04-25 20:27 29.17127 -111.05062 35949 ft 467 kts 352°
2026-04-25 20:27 29.23659 -111.04684 35943 ft 470 kts 353°
2026-04-25 20:28 29.30168 -111.04309 35934 ft 470 kts 352°
2026-04-25 20:28 29.36718 -111.04001 35933 ft 470 kts 352°
2026-04-25 20:29 29.43259 -111.03716 35931 ft 470 kts 352°
2026-04-25 20:29 29.49800 -111.03430 35932 ft 469 kts 352°
2026-04-25 20:30 29.56275 -111.03139 35934 ft 468 kts 352°
2026-04-25 20:30 29.62782 -111.02852 35939 ft 468 kts 352°
2026-04-25 20:31 29.69285 -111.02552 35946 ft 468 kts 352°
2026-04-25 20:31 29.75786 -111.02251 35944 ft 467 kts 352°
2026-04-25 20:32 29.81184 -111.02002 35946 ft 467 kts 352°
2026-04-25 20:32 29.87680 -111.01702 35941 ft 467 kts 352°
2026-04-25 20:33 29.94174 -111.01401 35950 ft 466 kts 352°
2026-04-25 20:33 29.99579 -111.01154 35947 ft 467 kts 352°
2026-04-25 20:34 30.07183 -111.00801 35950 ft 468 kts 351°
2026-04-25 20:34 30.13653 -111.00504 35958 ft 469 kts 351°
2026-04-25 20:35 30.20179 -111.00221 35952 ft 469 kts 351°
2026-04-25 20:35 30.26728 -110.99939 35951 ft 471 kts 351°
2026-04-25 20:36 30.33236 -110.99665 35965 ft 470 kts 351°
2026-04-25 20:36 30.39783 -110.99377 35963 ft 471 kts 351°
2026-04-25 20:37 30.46325 -110.99088 35964 ft 471 kts 351°
2026-04-25 20:37 30.52878 -110.98801 35966 ft 471 kts 351°
2026-04-25 20:38 30.59451 -110.98474 35964 ft 472 kts 351°
2026-04-25 20:38 30.66006 -110.98139 35976 ft 471 kts 351°
2026-04-25 20:39 30.72534 -110.97812 35982 ft 469 kts 351°
2026-04-25 20:39 30.77948 -110.97530 35975 ft 468 kts 351°
2026-04-25 20:40 30.85534 -110.97153 35960 ft 467 kts 349°
2026-04-25 20:40 30.92016 -110.96999 35999 ft 466 kts 351°
2026-04-25 20:41 30.98521 -110.96652 35992 ft 468 kts 351°
2026-04-25 20:41 31.05002 -110.96304 36003 ft 469 kts 351°
2026-04-25 20:42 31.11536 -110.96002 35993 ft 471 kts 351°
2026-04-25 20:42 31.18100 -110.95699 35994 ft 472 kts 351°
2026-04-25 20:43 31.24688 -110.95396 35998 ft 474 kts 351°
2026-04-25 20:43 31.31284 -110.95093 35996 ft 474 kts 351°
2026-04-25 20:44 31.37878 -110.94779 35990 ft 474 kts 351°
2026-04-25 20:44 31.44460 -110.94485 35993 ft 473 kts 351°
2026-04-25 20:45 31.50992 -110.94185 36009 ft 472 kts 351°
2026-04-25 20:45 31.57549 -110.93883 36009 ft 470 kts 350°
2026-04-25 20:46 31.64086 -110.93588 35997 ft 470 kts 350°
2026-04-25 20:46 31.70632 -110.93296 35995 ft 470 kts 351°
2026-04-25 20:47 31.77184 -110.93000 35969 ft 471 kts 350°
2026-04-25 20:47 31.83736 -110.92693 35954 ft 470 kts 351°
2026-04-25 20:48 31.90225 -110.92390 35940 ft 469 kts 350°
2026-04-25 20:48 31.96749 -110.92090 35936 ft 469 kts 350°
2026-04-25 20:49 32.03280 -110.91788 35933 ft 470 kts 350°
2026-04-25 20:49 32.06527 -110.91801 35924 ft 458 kts 341°
2026-04-25 20:49 32.09591 -110.92521 35946 ft 439 kts 330°
2026-04-25 20:50 32.12397 -110.93791 35940 ft 426 kts 321°
2026-04-25 20:50 32.14868 -110.95517 35943 ft 414 kts 314°
2026-04-25 20:50 32.19668 -110.99320 35938 ft 416 kts 314°
2026-04-25 20:51 32.24501 -111.03111 35917 ft 416 kts 315°
2026-04-25 20:51 32.29306 -111.06859 35921 ft 412 kts 314°
2026-04-25 20:52 32.33285 -111.09964 35919 ft 412 kts 314°
2026-04-25 20:52 32.38880 -111.14332 35910 ft 412 kts 314°
2026-04-25 20:53 32.43621 -111.18111 35896 ft 412 kts 315°
2026-04-25 20:53 32.48391 -111.21801 35902 ft 413 kts 315°
2026-04-25 20:54 32.53199 -111.25534 35907 ft 413 kts 314°
2026-04-25 20:54 32.57999 -111.29290 35917 ft 414 kts 314°
2026-04-25 20:55 32.62807 -111.33066 35915 ft 414 kts 314°
2026-04-25 20:55 32.67629 -111.36855 35915 ft 415 kts 314°
2026-04-25 20:56 32.72402 -111.40622 35936 ft 414 kts 315°
2026-04-25 20:56 32.77265 -111.44366 35916 ft 415 kts 314°
2026-04-25 20:57 32.82071 -111.48196 35909 ft 415 kts 314°
2026-04-25 20:57 32.86846 -111.52000 35908 ft 415 kts 314°
2026-04-25 20:58 32.91681 -111.55837 35909 ft 414 kts 314°
2026-04-25 20:58 32.96445 -111.59612 35903 ft 414 kts 314°
2026-04-25 20:59 33.01249 -111.63417 35907 ft 414 kts 314°
2026-04-25 20:59 33.06043 -111.67229 35914 ft 414 kts 314°
2026-04-25 21:00 33.09247 -111.69774 35903 ft 413 kts 314°
2026-04-25 21:01 33.18027 -111.76767 35886 ft 414 kts 314°
2026-04-25 21:01 33.22814 -111.80591 35885 ft 414 kts 314°
2026-04-25 21:02 33.27569 -111.84392 35888 ft 414 kts 314°
2026-04-25 21:02 33.32369 -111.88234 35883 ft 415 kts 314°
2026-04-25 21:03 33.37170 -111.92073 35886 ft 415 kts 314°
2026-04-25 21:03 33.42007 -111.95857 35883 ft 421 kts 319°
2026-04-25 21:03 33.44676 -111.97364 35880 ft 434 kts 326°
2026-04-25 21:04 33.47621 -111.98441 35882 ft 446 kts 333°
2026-04-25 21:04 33.53664 -112.00221 35891 ft 448 kts 334°
2026-04-25 21:05 33.59741 -112.01969 35890 ft 448 kts 333°
2026-04-25 21:05 33.65786 -112.03754 35900 ft 447 kts 333°
2026-04-25 21:06 33.71831 -112.05568 35895 ft 447 kts 333°
2026-04-25 21:06 33.77834 -112.07381 35901 ft 447 kts 333°
2026-04-25 21:07 33.83889 -112.09216 35892 ft 448 kts 333°
2026-04-25 21:07 33.89923 -112.11038 35887 ft 448 kts 333°
2026-04-25 21:08 33.95968 -112.12872 35893 ft 447 kts 333°
2026-04-25 21:08 34.02010 -112.14705 35894 ft 448 kts 333°
2026-04-25 21:09 34.11068 -112.17461 35914 ft 447 kts 333°
2026-04-25 21:09 34.17072 -112.19295 35908 ft 448 kts 333°
2026-04-25 21:10 34.23133 -112.21144 35911 ft 447 kts 333°
2026-04-25 21:10 34.29153 -112.22991 35933 ft 446 kts 333°
2026-04-25 21:11 34.35175 -112.24824 35946 ft 446 kts 333°
2026-04-25 21:11 34.41159 -112.26641 35945 ft 445 kts 333°
2026-04-25 21:12 34.47172 -112.28492 35958 ft 446 kts 333°
2026-04-25 21:12 34.51196 -112.29734 35968 ft 446 kts 333°
2026-04-25 21:13 34.59232 -112.32211 35980 ft 448 kts 333°
2026-04-25 21:13 34.65288 -112.34079 35973 ft 449 kts 333°
2026-04-25 21:14 34.71329 -112.35942 35985 ft 451 kts 334°
2026-04-25 21:14 34.77423 -112.37824 35984 ft 452 kts 334°
2026-04-25 21:15 34.83530 -112.39717 35977 ft 453 kts 334°
2026-04-25 21:15 34.89646 -112.41614 35977 ft 454 kts 334°
2026-04-25 21:16 34.95785 -112.43523 35995 ft 456 kts 334°
2026-04-25 21:16 35.01919 -112.45429 36006 ft 458 kts 334°
2026-04-25 21:17 35.08111 -112.47360 36009 ft 459 kts 334°
2026-04-25 21:17 35.14317 -112.49298 36010 ft 460 kts 334°
2026-04-25 21:18 35.20529 -112.51239 36023 ft 461 kts 334°
2026-04-25 21:18 35.26721 -112.53178 36017 ft 462 kts 334°
2026-04-25 21:19 35.32965 -112.55136 36022 ft 463 kts 334°
2026-04-25 21:19 35.39227 -112.57101 36016 ft 463 kts 335°
2026-04-25 21:20 35.43398 -112.58411 36017 ft 462 kts 335°
2026-04-25 21:20 35.51655 -112.61012 36008 ft 462 kts 335°
2026-04-25 21:21 35.56833 -112.62646 36005 ft 461 kts 334°
2026-04-25 21:21 35.63089 -112.64622 35999 ft 461 kts 335°
2026-04-25 21:22 35.69260 -112.66576 35985 ft 460 kts 335°
2026-04-25 21:22 35.75454 -112.68542 35989 ft 459 kts 335°
2026-04-25 21:23 35.81644 -112.70506 35985 ft 459 kts 335°
2026-04-25 21:23 35.87835 -112.72475 35983 ft 459 kts 335°
2026-04-25 21:24 35.94018 -112.74444 35985 ft 459 kts 335°
2026-04-25 21:24 36.00207 -112.76419 35960 ft 459 kts 335°
2026-04-25 21:25 36.06354 -112.78384 35947 ft 459 kts 335°
2026-04-25 21:25 36.12542 -112.80365 35944 ft 459 kts 335°
2026-04-25 21:26 36.18737 -112.82350 35940 ft 459 kts 335°
2026-04-25 21:26 36.24923 -112.84337 35921 ft 459 kts 335°
2026-04-25 21:27 36.31062 -112.86317 35928 ft 458 kts 335°
2026-04-25 21:27 36.37246 -112.88308 35927 ft 459 kts 335°
2026-04-25 21:28 36.43440 -112.90304 35916 ft 460 kts 336°
2026-04-25 21:28 36.49623 -112.92300 35925 ft 459 kts 336°
2026-04-25 21:29 36.55804 -112.94302 35919 ft 459 kts 336°
2026-04-25 21:29 36.61951 -112.96296 35910 ft 459 kts 336°
2026-04-25 21:30 36.68123 -112.98301 35906 ft 458 kts 335°
2026-04-25 21:30 36.73293 -112.99984 35912 ft 458 kts 336°
2026-04-25 21:31 36.80478 -113.02327 35899 ft 459 kts 336°
2026-04-25 21:31 36.86664 -113.04349 35885 ft 458 kts 336°
2026-04-25 21:32 36.92837 -113.06373 35894 ft 458 kts 336°
2026-04-25 21:32 36.99007 -113.08390 35899 ft 458 kts 336°
2026-04-25 21:33 37.05133 -113.10396 35896 ft 458 kts 336°
2026-04-25 21:33 37.11295 -113.12422 35883 ft 458 kts 336°
2026-04-25 21:34 37.17462 -113.14453 35862 ft 457 kts 336°
2026-04-25 21:34 37.23622 -113.16483 35862 ft 458 kts 336°
2026-04-25 21:35 37.29780 -113.18519 35847 ft 458 kts 336°
2026-04-25 21:35 37.35935 -113.20555 35858 ft 457 kts 336°
2026-04-25 21:36 37.42082 -113.22592 35864 ft 457 kts 336°
2026-04-25 21:36 37.48237 -113.24638 35853 ft 458 kts 336°
2026-04-25 21:37 37.53355 -113.26342 35855 ft 458 kts 336°
2026-04-25 21:37 37.60546 -113.28736 35853 ft 457 kts 336°
2026-04-25 21:38 37.66655 -113.30774 35855 ft 457 kts 336°
2026-04-25 21:38 37.72814 -113.32835 35878 ft 458 kts 336°
2026-04-25 21:39 37.78992 -113.34903 35863 ft 458 kts 336°
2026-04-25 21:39 37.85149 -113.36968 35862 ft 458 kts 336°
2026-04-25 21:40 37.90948 -113.39797 35861 ft 440 kts 321°
2026-04-25 21:40 37.93459 -113.41946 35851 ft 429 kts 313°
2026-04-25 21:40 37.95774 -113.44316 35860 ft 428 kts 312°
2026-04-25 21:41 38.00369 -113.49132 35846 ft 429 kts 312°
2026-04-25 21:41 38.05006 -113.53936 35851 ft 430 kts 312°
2026-04-25 21:42 38.09640 -113.58693 35851 ft 432 kts 313°
2026-04-25 21:42 38.14317 -113.63493 35856 ft 433 kts 313°
2026-04-25 21:43 38.18997 -113.68306 35836 ft 433 kts 313°
2026-04-25 21:43 38.23683 -113.73133 35842 ft 433 kts 313°
2026-04-25 21:44 38.28355 -113.77956 35842 ft 432 kts 313°
2026-04-25 21:45 38.35348 -113.85190 35840 ft 431 kts 313°
2026-04-25 21:45 38.39968 -113.89980 35842 ft 430 kts 312°
2026-04-25 21:46 38.44607 -113.94799 35843 ft 429 kts 312°
2026-04-25 21:46 38.49256 -113.99636 35836 ft 431 kts 312°
2026-04-25 21:47 38.53900 -114.04478 35826 ft 431 kts 312°
2026-04-25 21:47 38.58511 -114.09293 35835 ft 431 kts 312°
2026-04-25 21:48 38.63149 -114.14141 35834 ft 430 kts 312°
2026-04-25 21:48 38.67797 -114.19012 35878 ft 434 kts 312°
2026-04-25 21:48 38.70137 -114.21470 36085 ft 434 kts 312°
2026-04-25 21:49 38.72467 -114.23913 36456 ft 431 kts 312°
2026-04-25 21:49 38.74779 -114.26340 36712 ft 430 kts 312°
2026-04-25 21:49 38.77083 -114.28766 36968 ft 427 kts 312°
2026-04-25 21:49 38.79372 -114.31176 37287 ft 424 kts 312°
2026-04-25 21:50 38.81611 -114.33519 37681 ft 419 kts 311°
2026-04-25 21:50 38.83888 -114.35918 37850 ft 419 kts 311°
2026-04-25 21:50 38.86148 -114.38310 37834 ft 421 kts 311°
2026-04-25 21:51 38.90632 -114.43057 37831 ft 420 kts 311°
2026-04-25 21:51 38.95124 -114.47811 37839 ft 416 kts 311°
2026-04-25 21:52 38.99590 -114.52545 37844 ft 414 kts 311°
2026-04-25 21:52 39.04025 -114.57261 37842 ft 412 kts 311°
2026-04-25 21:53 39.08412 -114.61929 37846 ft 412 kts 311°
2026-04-25 21:53 39.12830 -114.66642 37844 ft 413 kts 311°
2026-04-25 21:54 39.17277 -114.71392 37842 ft 416 kts 311°
2026-04-25 21:54 39.21755 -114.76178 37839 ft 419 kts 311°
2026-04-25 21:55 39.26272 -114.81014 37845 ft 422 kts 311°
2026-04-25 21:55 39.30834 -114.85770 37835 ft 428 kts 316°
2026-04-25 21:56 39.35788 -114.90075 37838 ft 430 kts 317°
2026-04-25 21:56 39.40780 -114.94330 37843 ft 429 kts 317°
2026-04-25 21:57 39.45749 -114.98600 37829 ft 427 kts 317°
2026-04-25 21:57 39.50685 -115.02871 37837 ft 425 kts 317°
2026-04-25 21:58 39.55581 -115.07133 37835 ft 424 kts 317°
2026-04-25 21:58 39.60436 -115.11365 37841 ft 422 kts 317°
2026-04-25 21:59 39.65301 -115.15615 37844 ft 421 kts 317°
2026-04-25 21:59 39.70167 -115.19871 37833 ft 421 kts 317°
2026-04-25 22:00 39.77463 -115.26266 37826 ft 422 kts 317°
2026-04-25 22:00 39.82345 -115.30552 37823 ft 423 kts 317°
2026-04-25 22:01 39.87208 -115.34834 37813 ft 424 kts 317°
2026-04-25 22:01 39.91310 -115.38451 37814 ft 425 kts 317°
2026-04-25 22:02 39.97011 -115.43481 37813 ft 426 kts 317°
2026-04-25 22:02 40.01919 -115.47820 37816 ft 427 kts 317°
2026-04-25 22:03 40.06836 -115.52175 37817 ft 427 kts 317°
2026-04-25 22:03 40.11751 -115.56536 37816 ft 426 kts 317°
2026-04-25 22:04 40.16620 -115.60867 37821 ft 426 kts 317°
2026-04-25 22:04 40.21525 -115.65232 37829 ft 426 kts 317°
2026-04-25 22:05 40.26425 -115.69608 37818 ft 425 kts 317°
2026-04-25 22:05 40.31316 -115.73978 37813 ft 425 kts 317°
2026-04-25 22:06 40.36208 -115.78354 37811 ft 425 kts 317°
2026-04-25 22:06 40.41054 -115.82703 37807 ft 424 kts 317°
2026-04-25 22:07 40.45129 -115.86367 37802 ft 424 kts 317°
2026-04-25 22:07 40.50779 -115.91453 37812 ft 423 kts 317°
2026-04-25 22:08 40.55627 -115.95827 37802 ft 423 kts 317°
2026-04-25 22:08 40.60478 -116.00211 37805 ft 423 kts 317°
2026-04-25 22:09 40.64536 -116.03884 37798 ft 423 kts 317°
2026-04-25 22:09 40.69359 -116.08256 37807 ft 424 kts 317°
2026-04-25 22:10 40.74226 -116.12676 37792 ft 425 kts 317°
2026-04-25 22:10 40.79096 -116.17104 37801 ft 425 kts 317°
2026-04-25 22:11 40.83965 -116.21544 37801 ft 426 kts 317°
2026-04-25 22:11 40.88845 -116.26000 37793 ft 426 kts 317°
2026-04-25 22:12 40.93724 -116.30462 37792 ft 426 kts 317°
2026-04-25 22:12 40.97809 -116.34203 37801 ft 426 kts 317°
2026-04-25 22:13 41.03484 -116.39413 37803 ft 427 kts 317°
2026-04-25 22:13 41.08367 -116.43904 37809 ft 427 kts 317°
2026-04-25 22:14 41.13254 -116.48408 37802 ft 427 kts 317°
2026-04-25 22:14 41.18126 -116.52904 37797 ft 426 kts 317°
2026-04-25 22:15 41.22987 -116.57398 37795 ft 426 kts 317°
2026-04-25 22:16 41.30231 -116.64115 37802 ft 425 kts 317°
2026-04-25 22:16 41.35076 -116.68619 37803 ft 424 kts 317°
2026-04-25 22:17 41.39917 -116.73125 37809 ft 424 kts 317°
2026-04-25 22:17 41.44753 -116.77633 37800 ft 423 kts 317°
2026-04-25 22:18 41.49550 -116.82116 37810 ft 423 kts 317°
2026-04-25 22:18 41.54372 -116.86630 37806 ft 423 kts 317°
2026-04-25 22:19 41.59195 -116.91153 37810 ft 423 kts 317°
2026-04-25 22:19 41.64019 -116.95691 37810 ft 424 kts 317°
2026-04-25 22:20 41.68856 -117.00242 37809 ft 425 kts 317°
2026-04-25 22:20 41.73699 -117.04809 37801 ft 426 kts 317°
2026-04-25 22:21 41.78549 -117.09392 37809 ft 427 kts 317°
2026-04-25 22:21 41.83383 -117.13965 37808 ft 427 kts 317°
2026-04-25 22:22 41.88246 -117.18577 37800 ft 427 kts 317°
2026-04-25 22:22 41.93103 -117.23193 37811 ft 427 kts 317°
2026-04-25 22:23 41.97925 -117.27787 37799 ft 428 kts 317°
2026-04-25 22:23 42.02775 -117.32410 37811 ft 427 kts 318°
2026-04-25 22:24 42.07613 -117.37032 37816 ft 426 kts 318°
2026-04-25 22:24 42.12451 -117.41666 37810 ft 427 kts 318°
2026-04-25 22:25 42.17302 -117.46319 37816 ft 427 kts 318°
2026-04-25 22:25 42.22149 -117.50980 37818 ft 428 kts 318°
2026-04-25 22:26 42.27000 -117.55655 37814 ft 429 kts 318°
2026-04-25 22:26 42.31852 -117.60337 37813 ft 429 kts 318°
2026-04-25 22:27 42.36672 -117.64995 37818 ft 428 kts 318°
2026-04-25 22:27 42.41526 -117.69698 37810 ft 428 kts 318°
2026-04-25 22:28 42.46365 -117.74390 37812 ft 427 kts 318°
2026-04-25 22:28 42.51195 -117.79089 37813 ft 428 kts 318°
2026-04-25 22:29 42.56033 -117.83803 37812 ft 428 kts 318°
2026-04-25 22:29 42.60883 -117.88538 37814 ft 429 kts 318°
2026-04-25 22:30 42.68125 -117.95611 37819 ft 429 kts 318°
2026-04-25 22:30 42.72154 -117.99553 37811 ft 429 kts 318°
2026-04-25 22:31 42.77814 -118.05104 37817 ft 428 kts 319°
2026-04-25 22:31 42.82650 -118.09860 37825 ft 429 kts 319°
2026-04-25 22:32 42.87486 -118.14625 37823 ft 429 kts 319°
2026-04-25 22:32 42.92328 -118.19409 37829 ft 430 kts 319°
2026-04-25 22:33 42.97146 -118.24177 37831 ft 431 kts 319°
2026-04-25 22:33 43.02013 -118.28997 37832 ft 432 kts 319°
2026-04-25 22:34 43.06882 -118.33829 37836 ft 432 kts 319°
2026-04-25 22:34 43.11745 -118.38668 37845 ft 433 kts 319°
2026-04-25 22:35 43.16588 -118.43494 37838 ft 433 kts 319°
2026-04-25 22:35 43.21459 -118.48359 37853 ft 434 kts 319°
2026-04-25 22:36 43.26340 -118.53247 37849 ft 434 kts 320°
2026-04-25 22:36 43.31223 -118.58145 37850 ft 434 kts 320°
2026-04-25 22:37 43.36106 -118.63052 37850 ft 434 kts 320°
2026-04-25 22:37 43.40987 -118.67970 37857 ft 434 kts 320°
2026-04-25 22:38 43.45824 -118.72850 37857 ft 434 kts 320°
2026-04-25 22:38 43.50690 -118.77770 37860 ft 434 kts 320°
2026-04-25 22:39 43.55553 -118.82696 37864 ft 433 kts 320°
2026-04-25 22:39 43.60411 -118.87629 37857 ft 433 kts 320°
2026-04-25 22:40 43.65273 -118.92577 37865 ft 433 kts 320°
2026-04-25 22:40 43.70127 -118.97528 37863 ft 433 kts 320°
2026-04-25 22:41 43.74955 -119.02461 37861 ft 434 kts 320°
2026-04-25 22:41 43.79812 -119.07434 37863 ft 434 kts 320°
2026-04-25 22:42 43.84669 -119.12421 37861 ft 434 kts 320°
2026-04-25 22:42 43.89537 -119.17399 37865 ft 434 kts 320°
2026-04-25 22:43 43.94399 -119.22405 37860 ft 435 kts 320°
2026-04-25 22:43 43.99239 -119.27401 37865 ft 436 kts 320°
2026-04-25 22:44 44.04100 -119.32432 37858 ft 436 kts 321°
2026-04-25 22:44 44.08968 -119.37477 37874 ft 436 kts 321°
2026-04-25 22:45 44.13841 -119.42540 37877 ft 437 kts 321°
2026-04-25 22:45 44.18713 -119.47613 37867 ft 437 kts 321°
2026-04-25 22:46 44.23562 -119.52674 37882 ft 438 kts 321°
2026-04-25 22:46 44.28441 -119.57776 37885 ft 438 kts 321°
2026-04-25 22:47 44.33321 -119.62890 37867 ft 438 kts 321°
2026-04-25 22:47 44.38198 -119.68007 37871 ft 438 kts 321°
2026-04-25 22:48 44.43071 -119.73133 37878 ft 438 kts 321°
2026-04-25 22:48 44.47937 -119.78265 37884 ft 438 kts 321°
2026-04-25 22:49 44.52800 -119.83405 37879 ft 438 kts 321°
2026-04-25 22:49 44.57629 -119.88519 37870 ft 437 kts 321°
2026-04-25 22:50 44.62482 -119.93668 37881 ft 437 kts 321°
2026-04-25 22:50 44.67304 -119.98798 37890 ft 437 kts 321°
2026-04-25 22:51 44.72156 -120.03970 37890 ft 437 kts 321°
2026-04-25 22:51 44.77002 -120.09145 37885 ft 437 kts 321°
2026-04-25 22:52 44.81871 -120.14359 37199 ft 441 kts 321°
2026-04-25 22:52 44.84306 -120.16971 36544 ft 439 kts 321°
2026-04-25 22:52 44.85914 -120.18697 36105 ft 438 kts 321°
2026-04-25 22:53 44.89126 -120.22148 35147 ft 439 kts 321°
2026-04-25 22:53 44.91559 -120.24765 34372 ft 441 kts 322°
2026-04-25 22:53 44.93999 -120.27393 33555 ft 443 kts 322°
2026-04-25 22:53 44.96453 -120.30038 32722 ft 444 kts 322°
2026-04-25 22:54 44.98913 -120.32692 31845 ft 446 kts 322°
2026-04-25 22:54 45.01380 -120.35358 30970 ft 447 kts 322°
2026-04-25 22:54 45.03023 -120.37135 30362 ft 448 kts 322°
2026-04-25 22:54 45.06317 -120.40704 29461 ft 442 kts 321°
2026-04-25 22:55 45.07928 -120.42453 29008 ft 439 kts 322°
2026-04-25 22:55 45.10341 -120.45074 28362 ft 434 kts 322°
2026-04-25 22:55 45.12720 -120.47657 27716 ft 429 kts 322°
2026-04-25 22:55 45.15080 -120.50223 27089 ft 424 kts 321°
2026-04-25 22:56 45.17169 -120.53113 26433 ft 419 kts 305°
2026-04-25 22:56 45.18626 -120.56666 25883 ft 413 kts 298°
2026-04-25 22:56 45.19975 -120.60241 25261 ft 409 kts 298°
2026-04-25 22:56 45.21314 -120.63792 24668 ft 405 kts 298°
2026-04-25 22:57 45.22642 -120.67294 24078 ft 402 kts 299°
2026-04-25 22:57 45.23948 -120.70720 23500 ft 398 kts 299°
2026-04-25 22:57 45.25265 -120.74162 22920 ft 395 kts 299°
2026-04-25 22:57 45.26571 -120.77568 22347 ft 391 kts 299°
2026-04-25 22:58 45.27867 -120.80951 21773 ft 389 kts 299°
2026-04-25 22:58 45.29151 -120.84306 21202 ft 385 kts 299°
2026-04-25 22:58 45.30426 -120.87641 20634 ft 382 kts 299°
2026-04-25 22:58 45.31689 -120.90948 20077 ft 379 kts 299°
2026-04-25 22:59 45.32941 -120.94232 19525 ft 376 kts 299°
2026-04-25 22:59 45.34184 -120.97496 18962 ft 374 kts 299°
2026-04-25 22:59 45.35415 -121.00731 18426 ft 370 kts 299°
2026-04-25 22:59 45.36636 -121.03943 17884 ft 367 kts 299°
2026-04-25 23:00 45.37838 -121.07104 17657 ft 356 kts 298°
2026-04-25 23:00 45.38909 -121.10175 17279 ft 350 kts 292°
2026-04-25 23:00 45.39710 -121.13415 16898 ft 345 kts 288°
2026-04-25 23:00 45.40423 -121.16675 16420 ft 343 kts 288°
2026-04-25 23:01 45.41123 -121.19909 15952 ft 341 kts 288°
2026-04-25 23:01 45.41833 -121.23116 15485 ft 339 kts 288°
2026-04-25 23:01 45.42554 -121.26300 15016 ft 337 kts 289°
2026-04-25 23:01 45.43280 -121.29462 14551 ft 335 kts 289°
2026-04-25 23:02 45.44007 -121.32603 14076 ft 333 kts 289°
2026-04-25 23:02 45.44732 -121.35729 13628 ft 331 kts 289°
2026-04-25 23:02 45.45440 -121.38782 13497 ft 319 kts 289°
2026-04-25 23:02 45.46129 -121.41759 13069 ft 317 kts 289°
2026-04-25 23:03 45.46817 -121.44732 12647 ft 315 kts 289°
2026-04-25 23:03 45.47501 -121.47696 12228 ft 314 kts 289°
2026-04-25 23:03 45.48179 -121.50637 11829 ft 311 kts 289°
2026-04-25 23:03 45.48851 -121.53560 11422 ft 309 kts 289°
2026-04-25 23:04 45.49517 -121.56466 11010 ft 308 kts 289°
2026-04-25 23:04 45.50179 -121.59359 10598 ft 306 kts 289°
2026-04-25 23:04 45.50839 -121.62240 10323 ft 301 kts 289°
2026-04-25 23:04 45.51469 -121.64997 10200 ft 290 kts 289°
2026-04-25 23:05 45.52083 -121.67686 10077 ft 281 kts 289°
2026-04-25 23:05 45.52679 -121.70295 9881 ft 274 kts 289°
2026-04-25 23:05 45.53113 -121.72930 9554 ft 274 kts 276°
2026-04-25 23:05 45.53215 -121.75637 9244 ft 273 kts 273°
2026-04-25 23:06 45.53293 -121.78339 8913 ft 273 kts 273°
2026-04-25 23:06 45.53379 -121.81038 8570 ft 272 kts 273°
2026-04-25 23:06 45.53475 -121.83732 8253 ft 272 kts 274°
2026-04-25 23:06 45.53579 -121.86422 7936 ft 270 kts 274°
2026-04-25 23:07 45.53685 -121.89093 7608 ft 269 kts 274°
2026-04-25 23:07 45.53791 -121.91723 7382 ft 265 kts 274°
2026-04-25 23:07 45.53896 -121.94297 7238 ft 256 kts 274°
2026-04-25 23:07 45.53995 -121.96836 6967 ft 255 kts 273°
2026-04-25 23:08 45.54093 -121.99314 6867 ft 246 kts 273°
2026-04-25 23:08 45.54190 -122.01717 6735 ft 240 kts 273°
2026-04-25 23:08 45.54124 -122.04069 6612 ft 236 kts 250°
2026-04-25 23:08 45.53312 -122.05994 6540 ft 217 kts 233°
2026-04-25 23:09 45.52464 -122.07686 6404 ft 204 kts 234°
2026-04-25 23:09 45.51650 -122.09321 6305 ft 201 kts 234°
2026-04-25 23:09 45.50843 -122.10941 6186 ft 200 kts 234°
2026-04-25 23:09 45.50048 -122.12532 6076 ft 200 kts 234°
2026-04-25 23:10 45.49240 -122.14150 6045 ft 197 kts 234°
2026-04-25 23:10 45.48437 -122.15755 5976 ft 202 kts 234°
2026-04-25 23:10 45.47625 -122.17392 5829 ft 202 kts 236°
2026-04-25 23:10 45.47211 -122.19264 5660 ft 200 kts 272°
2026-04-25 23:11 45.47236 -122.21253 5435 ft 203 kts 270°
2026-04-25 23:11 45.47229 -122.23262 5185 ft 202 kts 270°
2026-04-25 23:11 45.47218 -122.25208 4934 ft 190 kts 269°
2026-04-25 23:11 45.47207 -122.27075 4730 ft 188 kts 270°
2026-04-25 23:12 45.47196 -122.28912 4509 ft 181 kts 269°
2026-04-25 23:12 45.47306 -122.30632 4270 ft 172 kts 293°
2026-04-25 23:12 45.47906 -122.32071 4088 ft 171 kts 301°
2026-04-25 23:12 45.48476 -122.33537 3868 ft 167 kts 299°
2026-04-25 23:13 45.49025 -122.34975 3640 ft 163 kts 299°
2026-04-25 23:13 45.49567 -122.36390 3435 ft 162 kts 299°
2026-04-25 23:13 45.50109 -122.37799 3213 ft 162 kts 299°
2026-04-25 23:13 45.50651 -122.39202 3003 ft 162 kts 299°
2026-04-25 23:14 45.51191 -122.40605 2785 ft 161 kts 299°
2026-04-25 23:14 45.51732 -122.42010 2576 ft 161 kts 299°
2026-04-25 23:14 45.52270 -122.43407 2359 ft 160 kts 300°
2026-04-25 23:14 45.52806 -122.44793 2149 ft 159 kts 300°
2026-04-25 23:15 45.53330 -122.46153 1946 ft 158 kts 300°
2026-04-25 23:15 45.53918 -122.47475 1717 ft 158 kts 309°
2026-04-25 23:15 45.54661 -122.48613 1476 ft 157 kts 317°
2026-04-25 23:15 45.55422 -122.49716 1255 ft 155 kts 310°
2026-04-25 23:16 45.56072 -122.50974 1006 ft 158 kts 305°
2026-04-25 23:16 45.56624 -122.52298 811 ft 153 kts 302°
2026-04-25 23:16 45.57131 -122.53588 616 ft 145 kts 299°
2026-04-25 23:16 45.57613 -122.54835 456 ft 143 kts 301°
2026-04-25 23:17 45.58110 -122.56056 210 ft 145 kts 298°
2026-04-25 23:17 45.58612 -122.57337 34 ft 148 kts 300°
2026-04-25 23:17 45.59048 -122.58450 31 ft 99 kts 299°
2026-04-25 23:17 45.59192 -122.58847 31 ft 29 kts 283°
2026-04-25 23:18 45.59207 -122.59039 31 ft 13 kts 273°
2026-04-25 23:18 45.59208 -122.59065 31 ft 0 kts 271°
2026-04-25 23:18 45.59208 -122.59098 32 ft 6 kts 272°
2026-04-25 23:18 45.59210 -122.59165 31 ft 7 kts 272°
2026-04-25 23:19 45.59209 -122.59232 31 ft 7 kts 269°
2026-04-25 23:19 45.59208 -122.59298 30 ft 7 kts 269°
2026-04-25 23:19 45.59212 -122.59362 30 ft 6 kts 278°
2026-04-25 23:19 45.59224 -122.59423 30 ft 6 kts 289°
2026-04-25 23:20 45.59242 -122.59481 30 ft 7 kts 295°
2026-04-25 23:20 45.59263 -122.59539 29 ft 7 kts 299°
2026-04-25 23:20 45.59285 -122.59595 30 ft 6 kts 299°
2026-04-25 23:20 45.59306 -122.59650 29 ft 6 kts 295°
2026-04-25 23:21 45.59310 -122.59710 29 ft 6 kts 258°
2026-04-25 23:21 45.59283 -122.59754 29 ft 6 kts 204°
2026-04-25 23:21 45.59246 -122.59776 28 ft 6 kts 202°
2026-04-25 23:21 45.59226 -122.59787 28 ft 3 kts 199°
2026-04-25 23:22 45.59203 -122.59794 28 ft 4 kts 189°
2026-04-25 23:22 45.59172 -122.59800 28 ft 4 kts 182°
2026-04-25 23:22 45.59154 -122.59777 28 ft 3 kts 110°
2026-04-25 23:23 45.59153 -122.59731 28 ft 1 kts 85°
2026-04-25 23:23 45.59153 -122.59726 28 ft 0 kts 85°